{"data":{"norad_id":45138,"intl_designator":"2020-008H","name":"ONEWEB-0025","alt_names":[],"object_type":"PAYLOAD","status":"ACTIVE","operator":null,"country":"UK","launch_date":"2020-02-06","launch_site_code":"TYMSC","launch_vehicle":null,"mission":null,"orbit_class":"UNKNOWN","rcs_meters":null,"size_class":null,"mass_kg":null,"dimensions":null,"purposes":["comms"],"wikipedia_slug":null,"has_3d_model":false,"image_url":null,"decayed_at":null,"tle_current":{"epoch":"2026-05-25T03:17:28.972032Z","epoch_age_seconds":59210,"freshness":"FRESH","line1":"1 45138U 20008H   26145.13714088 -.00000172  00000+0 -52922-3 0  9995","line2":"2 45138  87.8871  40.8332 0001772  95.9731 264.1598 13.10378231305555","mean_motion":13.10378231,"eccentricity":0.0001772,"inclination_deg":87.8871,"raan_deg":40.8332,"arg_perigee_deg":95.9731,"mean_anomaly_deg":264.1598,"bstar":-0.00052922,"rev_number":30555,"period_min":109.89193546821,"perigee_km":1220.3495271189,"apogee_km":1223.0429080112,"semimajor_km":7599.833217565,"source":"CELESTRAK","updated_at":"2026-05-25T13:38:22.334355Z"}}}